Lanai City, HI

3:55 AM HST on January 16, 2017 (GMT -1000)
Lanai City

Weather History for PHNY - June, 2013

Change the Weather History Date:

Monday, June 24, 2013

  Actual Average Record
Temperature  
Mean Temperature 74 °F -  
Max Temperature 82 °F 81 °F 86 °F (1993)
Min Temperature 65 °F 64 °F 60 °F (1953)
Cooling Degree Days 8    
Growing Degree Days 24 (Base 50)    
Moisture  
Dew Point 64 °F    
Average Humidity 75    
Maximum Humidity 93    
Minimum Humidity 51    
Precipitation  
Precipitation 0.00 in - - ()
Sea Level Pressure  
Sea Level Pressure 30.09 in    
Wind  
Wind Speed 11 mph (NE)    
Max Wind Speed 23 mph    
Max Gust Speed 29 mph    
Visibility 10 miles    
Events Rain    
Averages and records for this station are not official NWS values.
T = Trace of Precipitation, MM = Missing Value Source: NWS Daily Summary

Daily Weather History Graph

Daily Weather History Graph

Search for Another Location

Airport or City:

Trip Planner

Search our weather history database for the weather conditions in past years. The results will help you decide how hot, cold, wet, or windy it might be!

Date:

Astronomy

Jun. 24, 2013 Rise Set
Actual Time 5:48 AM HST 7:12 PM HST
Civil Twilight 5:23 AM HST 7:36 PM HST
Nautical Twilight 4:54 AM HST 8:06 PM HST
Astronomical Twilight 4:23 AM HST 8:36 PM HST
Moon 8:40 PM HST (6/24) 7:16 AM HST (6/24)
Length of Visible Light 14h 13m
Length of Day
13h 23m
Full, 97% of the Moon is Illuminated
Jun 24
Full
Jun 29
Last Quarter
Jul 7
New
Jul 15
First Quarter
Jul 22
Full

Hourly Weather History & Observations

Time (HST) Temp. Heat Index Dew Point Humidity Pressure Visibility Wind Dir Wind Speed Gust Speed Precip Events Conditions
12:56 AM 68.9 °F - 66.9 °F 93% 30.08 in 10.0 mi NE 10.4 mph - 0.00 in Rain Light Rain
1:07 AM 69.8 °F - 66.2 °F 88% 30.13 in 7.0 mi NE 6.9 mph - 0.00 in Rain Light Rain
1:14 AM 69.8 °F - 66.2 °F 88% 30.14 in 10.0 mi ENE 9.2 mph - 0.00 in Rain Light Rain
1:56 AM 69.8 °F - 66.2 °F 88% 30.13 in 10.0 mi NE 13.8 mph - N/A   Mostly Cloudy
2:56 AM 68.9 °F - 63.9 °F 84% 30.05 in 10.0 mi NE 11.5 mph - 0.00 in   Mostly Cloudy
3:56 AM 68.9 °F - 63.9 °F 84% 30.06 in 10.0 mi East 8.1 mph - N/A   Mostly Cloudy
4:56 AM 68.0 °F - 63.9 °F 87% 30.06 in 10.0 mi East 11.5 mph - N/A   Clear
5:56 AM 65.8 °F - 61.9 °F 87% 30.08 in 10.0 mi East 5.8 mph - N/A   Clear
6:56 AM 70.0 °F - 64.9 °F 84% 30.09 in 10.0 mi NNE 6.9 mph - N/A   Overcast
7:26 AM 69.8 °F - 64.4 °F 83% 30.16 in 10.0 mi NNE 8.1 mph - 0.00 in Rain Light Rain
7:56 AM 73.4 °F - 66.2 °F 78% 30.16 in 10.0 mi NE 8.1 mph - N/A   Overcast
8:56 AM 75.9 °F - 63.0 °F 64% 30.10 in 10.0 mi Variable 4.6 mph - 0.00 in   Partly Cloudy
9:43 AM 78.8 °F - 62.6 °F 57% 30.16 in 10.0 mi SE 10.4 mph - N/A   Mostly Cloudy
9:56 AM 79.0 °F - 63.0 °F 58% 30.10 in 10.0 mi SE 9.2 mph - N/A   Scattered Clouds
10:56 AM 81.9 °F 83.2 °F 63.9 °F 54% 30.09 in 10.0 mi North 15.0 mph 19.6 mph N/A   Partly Cloudy
11:56 AM 82.9 °F 84.0 °F 63.0 °F 51% 30.08 in 10.0 mi NE 18.4 mph 23.0 mph N/A   Clear
12:56 PM 79.9 °F - 63.0 °F 56% 30.07 in 10.0 mi NNE 11.5 mph - N/A   Mostly Cloudy
1:56 PM 80.6 °F 81.8 °F 62.6 °F 54% 30.12 in 10.0 mi Variable 3.5 mph - N/A   Mostly Cloudy
2:56 PM 77.9 °F - 63.9 °F 62% 30.05 in 10.0 mi NNE 16.1 mph - N/A   Mostly Cloudy
3:56 PM 79.0 °F - 64.9 °F 62% 30.04 in 10.0 mi NE 21.9 mph 26.5 mph N/A   Clear
4:56 PM 74.8 °F - 64.9 °F 71% 30.04 in 10.0 mi NE 23.0 mph 28.8 mph N/A   Clear
5:56 PM 74.8 °F - 64.9 °F 71% 30.05 in 10.0 mi NE 23.0 mph 26.5 mph N/A   Clear
6:56 PM 72.9 °F - 63.9 °F 73% 30.06 in 10.0 mi NE 18.4 mph - N/A   Clear
7:56 PM 70.9 °F - 63.0 °F 76% 30.07 in 10.0 mi NE 17.3 mph - N/A   Clear
8:56 PM 70.0 °F - 63.9 °F 81% 30.08 in 10.0 mi NE 18.4 mph - 0.00 in   Clear
9:56 PM 70.0 °F - 63.0 °F 78% 30.09 in 10.0 mi NE 17.3 mph - N/A   Clear
10:56 PM 69.8 °F - 66.2 °F 88% 30.15 in 6.0 mi NE 13.8 mph - N/A Rain Light Rain
11:56 PM 68.0 °F - 64.9 °F 90% 30.07 in 10.0 mi NE 12.7 mph - 0.00 in   Clear